TimeCST,TemperatureF,Dew PointF,Humidity,Sea Level PressureIn,VisibilityMPH,Wind Direction,Wind SpeedMPH,Gust SpeedMPH,PrecipitationIn,Events,Conditions,WindDirDegrees,DateUTC
12:15 AM,17.6,12.2,79,30.18,10.0,Calm,Calm,-,N/A,,Overcast,0,2013-01-01 06:15:00
12:35 AM,17.6,10.4,73,30.17,10.0,Calm,Calm,-,N/A,,Overcast,0,2013-01-01 06:35:00
12:55 AM,17.6,10.4,73,30.17,10.0,Calm,Calm,-,N/A,,Overcast,0,2013-01-01 06:55:00
1:15 AM,17.6,10.4,73,30.18,10.0,Calm,Calm,-,N/A,,Overcast,0,2013-01-01 07:15:00
1:35 AM,17.6,10.4,73,30.18,10.0,Calm,Calm,-,N/A,,Overcast,0,2013-01-01 07:35:00
1:55 AM,17.6,10.4,73,30.19,10.0,Calm,Calm,-,N/A,,Overcast,0,2013-01-01 07:55:00
2:15 AM,17.6,10.4,73,30.20,10.0,Calm,Calm,-,N/A,,Overcast,0,2013-01-01 08:15:00
2:35 AM,15.8,10.4,79,30.21,10.0,Calm,Calm,-,N/A,,Overcast,0,2013-01-01 08:35:00
2:55 AM,15.8,8.6,73,30.21,10.0,Calm,Calm,-,N/A,,Overcast,0,2013-01-01 08:55:00
3:15 AM,15.8,8.6,73,30.20,10.0,Calm,Calm,-,N/A,,Scattered Clouds,0,2013-01-01 09:15:00
3:35 AM,15.8,8.6,73,30.20,10.0,Calm,Calm,-,N/A,,Mostly Cloudy,0,2013-01-01 09:35:00
4:15 AM,15.8,10.4,79,30.21,10.0,Calm,Calm,-,N/A,,Overcast,0,2013-01-01 10:15:00
4:35 AM,14.0,8.6,79,30.22,10.0,Calm,Calm,-,N/A,,Mostly Cloudy,0,2013-01-01 10:35:00
4:55 AM,12.2,8.6,85,30.22,10.0,Calm,Calm,-,N/A,,Scattered Clouds,0,2013-01-01 10:55:00
5:15 AM,12.2,6.8,79,30.23,10.0,Calm,Calm,-,N/A,,Clear,0,2013-01-01 11:15:00
5:35 AM,12.2,6.8,79,30.23,10.0,Calm,Calm,-,N/A,,Clear,0,2013-01-01 11:35:00
5:55 AM,10.4,6.8,85,30.22,10.0,Calm,Calm,-,N/A,,Clear,0,2013-01-01 11:55:00
6:15 AM,10.4,5.0,79,30.22,10.0,Calm,Calm,-,N/A,,Clear,0,2013-01-01 12:15:00
6:35 AM,10.4,5.0,79,30.23,10.0,Calm,Calm,-,N/A,,Clear,0,2013-01-01 12:35:00
6:55 AM,8.6,3.2,79,30.21,10.0,Calm,Calm,-,N/A,,Clear,0,2013-01-01 12:55:00
7:15 AM,8.6,3.2,79,30.21,10.0,Calm,Calm,-,N/A,,Clear,0,2013-01-01 13:15:00
7:35 AM,8.6,3.2,79,30.21,10.0,Calm,Calm,-,N/A,,Clear,0,2013-01-01 13:35:00
7:55 AM,8.6,3.2,79,30.22,10.0,Calm,Calm,-,N/A,,Clear,0,2013-01-01 13:55:00
8:15 AM,8.6,3.2,79,30.24,10.0,Calm,Calm,-,N/A,,Clear,0,2013-01-01 14:15:00
8:35 AM,8.6,3.2,79,30.25,10.0,Calm,Calm,-,N/A,,Clear,0,2013-01-01 14:35:00
8:55 AM,10.4,3.2,73,30.26,10.0,Calm,Calm,-,N/A,,Clear,0,2013-01-01 14:55:00
9:15 AM,10.4,3.2,73,30.27,10.0,Calm,Calm,-,N/A,,Clear,0,2013-01-01 15:15:00
9:35 AM,10.4,3.2,73,30.29,10.0,Calm,Calm,-,N/A,,Clear,0,2013-01-01 15:35:00
9:55 AM,12.2,3.2,67,30.30,10.0,Calm,Calm,-,N/A,,Clear,0,2013-01-01 15:55:00
10:15 AM,12.2,3.2,67,30.31,10.0,Calm,Calm,-,N/A,,Clear,0,2013-01-01 16:15:00
10:35 AM,12.2,5.0,73,30.31,10.0,Calm,Calm,-,N/A,,Clear,0,2013-01-01 16:35:00
11:15 AM,15.8,6.8,68,30.29,10.0,Calm,Calm,-,N/A,,Clear,0,2013-01-01 17:15:00
11:35 AM,15.8,6.8,68,30.28,10.0,Calm,Calm,-,N/A,,Clear,0,2013-01-01 17:35:00
11:55 AM,17.6,6.8,63,30.27,10.0,Calm,Calm,-,N/A,,Clear,0,2013-01-01 17:55:00
12:15 PM,17.6,6.8,63,30.27,10.0,Calm,Calm,-,N/A,,Clear,0,2013-01-01 18:15:00
12:35 PM,17.6,6.8,63,30.25,10.0,Calm,Calm,-,N/A,,Clear,0,2013-01-01 18:35:00
1:15 PM,19.4,8.6,63,30.22,10.0,Calm,Calm,-,N/A,,Clear,0,2013-01-01 19:15:00
1:35 PM,19.4,5.0,54,30.22,10.0,Calm,Calm,-,N/A,,Clear,0,2013-01-01 19:35:00
1:55 PM,19.4,6.8,58,30.22,10.0,Calm,Calm,-,N/A,,Clear,0,2013-01-01 19:55:00
2:15 PM,19.4,3.2,49,30.22,10.0,Calm,Calm,-,N/A,,Clear,0,2013-01-01 20:15:00
2:35 PM,19.4,6.8,58,30.23,10.0,Calm,Calm,-,N/A,,Clear,0,2013-01-01 20:35:00
2:55 PM,19.4,5.0,54,30.23,10.0,Calm,Calm,-,N/A,,Clear,0,2013-01-01 20:55:00
3:15 PM,19.4,3.2,49,30.24,10.0,Calm,Calm,-,N/A,,Clear,0,2013-01-01 21:15:00
3:35 PM,19.4,3.2,49,30.24,10.0,Calm,Calm,-,N/A,,Clear,0,2013-01-01 21:35:00
3:55 PM,17.6,3.2,53,30.24,10.0,Calm,Calm,-,N/A,,Clear,0,2013-01-01 21:55:00
4:15 PM,17.6,5.0,58,30.24,10.0,Calm,Calm,-,N/A,,Clear,0,2013-01-01 22:15:00
4:35 PM,17.6,5.0,58,30.24,10.0,Calm,Calm,-,N/A,,Clear,0,2013-01-01 22:35:00
4:55 PM,17.6,5.0,58,30.24,10.0,Calm,Calm,-,N/A,,Clear,0,2013-01-01 22:55:00
5:15 PM,15.8,5.0,62,30.24,10.0,Calm,Calm,-,N/A,,Clear,0,2013-01-01 23:15:00
5:35 PM,15.8,5.0,62,30.25,10.0,Calm,Calm,-,N/A,,Clear,0,2013-01-01 23:35:00
5:55 PM,15.8,5.0,62,30.25,10.0,Calm,Calm,-,N/A,,Clear,0,2013-01-01 23:55:00
6:15 PM,15.8,3.2,58,30.25,10.0,Calm,Calm,-,N/A,,Clear,0,2013-01-02 00:15:00
6:35 PM,15.8,3.2,58,30.25,10.0,Calm,Calm,-,N/A,,Clear,0,2013-01-02 00:35:00
6:55 PM,12.2,5.0,73,30.24,10.0,Calm,Calm,-,N/A,,Clear,0,2013-01-02 00:55:00
7:15 PM,15.8,3.2,58,30.24,10.0,Calm,Calm,-,N/A,,Clear,0,2013-01-02 01:15:00
7:35 PM,14.0,3.2,62,30.23,10.0,Calm,Calm,-,N/A,,Clear,0,2013-01-02 01:35:00
7:55 PM,12.2,3.2,67,30.23,10.0,Calm,Calm,-,N/A,,Clear,0,2013-01-02 01:55:00
8:15 PM,12.2,3.2,67,30.23,10.0,Calm,Calm,-,N/A,,Clear,0,2013-01-02 02:15:00
8:35 PM,14.0,3.2,62,30.22,10.0,Calm,Calm,-,N/A,,Clear,0,2013-01-02 02:35:00
8:55 PM,14.0,3.2,62,30.22,10.0,Calm,Calm,-,N/A,,Clear,0,2013-01-02 02:55:00
9:15 PM,10.4,3.2,73,30.22,10.0,Calm,Calm,-,N/A,,Clear,0,2013-01-02 03:15:00
9:35 PM,10.4,3.2,73,30.22,10.0,Calm,Calm,-,N/A,,Clear,0,2013-01-02 03:35:00
9:55 PM,8.6,3.2,79,30.22,10.0,Calm,Calm,-,N/A,,Clear,0,2013-01-02 03:55:00
10:15 PM,10.4,3.2,73,30.22,10.0,Calm,Calm,-,N/A,,Clear,0,2013-01-02 04:15:00
10:35 PM,12.2,3.2,67,30.22,10.0,Calm,Calm,-,N/A,,Clear,0,2013-01-02 04:35:00
10:55 PM,10.4,3.2,73,30.23,10.0,Calm,Calm,-,N/A,,Clear,0,2013-01-02 04:55:00
11:15 PM,12.2,3.2,67,30.23,10.0,Calm,Calm,-,N/A,,Clear,0,2013-01-02 05:15:00
11:35 PM,12.2,3.2,67,30.22,10.0,Calm,Calm,-,N/A,,Clear,0,2013-01-02 05:35:00
11:55 PM,12.2,3.2,67,30.22,10.0,Calm,Calm,-,N/A,,Clear,0,2013-01-02 05:55:00